TimeCST,TemperatureF,Dew PointF,Humidity,Sea Level PressureIn,VisibilityMPH,Wind Direction,Wind SpeedMPH,Gust SpeedMPH,PrecipitationIn,Events,Conditions,WindDirDegrees,DateUTC
12:55 AM,30.2,26.6,86,30.31,10.0,Calm,Calm,-,N/A,,Mostly Cloudy,0,2013-03-07 06:55:00
1:55 AM,30.2,26.6,86,30.32,10.0,Calm,Calm,-,N/A,,Mostly Cloudy,0,2013-03-07 07:55:00
2:15 AM,30.2,26.6,86,30.33,10.0,Calm,Calm,-,N/A,,Clear,0,2013-03-07 08:15:00
2:35 AM,28.4,26.6,93,30.32,10.0,Calm,Calm,-,N/A,,Clear,0,2013-03-07 08:35:00
2:55 AM,30.2,28.4,93,30.33,10.0,Calm,Calm,-,N/A,,Clear,0,2013-03-07 08:55:00
3:15 AM,30.2,28.4,93,30.33,10.0,Calm,Calm,-,N/A,,Clear,0,2013-03-07 09:15:00
3:35 AM,28.4,26.6,93,30.33,10.0,Calm,Calm,-,N/A,,Clear,0,2013-03-07 09:35:00
3:55 AM,30.2,28.4,93,30.33,10.0,Calm,Calm,-,N/A,,Clear,0,2013-03-07 09:55:00
4:15 AM,30.2,28.4,93,30.34,10.0,Calm,Calm,-,N/A,,Clear,0,2013-03-07 10:15:00
4:35 AM,32.0,26.6,80,30.34,10.0,NE,3.5,-,N/A,,Clear,40,2013-03-07 10:35:00
4:55 AM,32.0,26.6,80,30.35,10.0,NE,4.6,-,N/A,,Clear,40,2013-03-07 10:55:00
5:55 AM,32.0,26.6,80,30.36,10.0,East,3.5,-,N/A,,Mostly Cloudy,80,2013-03-07 11:55:00
6:55 AM,32.0,28.4,87,30.38,10.0,Calm,Calm,-,N/A,,Mostly Cloudy,0,2013-03-07 12:55:00
7:55 AM,33.8,28.4,81,30.39,10.0,East,4.6,-,N/A,,Mostly Cloudy,90,2013-03-07 13:55:00
8:55 AM,37.4,28.4,70,30.39,10.0,East,6.9,-,N/A,,Mostly Cloudy,90,2013-03-07 14:55:00
9:55 AM,39.2,28.4,65,30.40,10.0,Variable,3.5,-,N/A,,Mostly Cloudy,0,2013-03-07 15:55:00
10:55 AM,44.6,30.2,57,30.40,10.0,Variable,5.8,-,N/A,,Scattered Clouds,0,2013-03-07 16:55:00
11:55 AM,46.4,30.2,53,30.38,10.0,NE,5.8,-,N/A,,Partly Cloudy,40,2013-03-07 17:55:00
12:55 PM,48.2,30.2,50,30.35,10.0,Variable,3.5,-,N/A,,Partly Cloudy,0,2013-03-07 18:55:00
1:55 PM,51.8,30.2,44,30.33,10.0,Calm,Calm,-,N/A,,Partly Cloudy,0,2013-03-07 19:55:00
2:55 PM,51.8,30.2,44,30.32,10.0,Variable,4.6,-,N/A,,Clear,0,2013-03-07 20:55:00
3:55 PM,51.8,32.0,47,30.30,10.0,Variable,4.6,-,N/A,,Clear,0,2013-03-07 21:55:00
4:55 PM,51.8,32.0,47,30.30,10.0,East,4.6,-,N/A,,Clear,100,2013-03-07 22:55:00
5:55 PM,44.6,33.8,66,30.30,10.0,East,3.5,-,N/A,,Clear,90,2013-03-07 23:55:00
7:55 PM,42.8,30.2,61,30.31,10.0,NE,3.5,-,N/A,,Clear,50,2013-03-08 01:55:00
8:55 PM,42.8,30.2,61,30.30,10.0,ENE,3.5,-,N/A,,Clear,60,2013-03-08 02:55:00
9:55 PM,41.0,30.2,65,30.31,10.0,NE,3.5,-,N/A,,Clear,50,2013-03-08 03:55:00
10:55 PM,41.0,30.2,65,30.31,10.0,ENE,3.5,-,N/A,,Clear,60,2013-03-08 04:55:00
11:55 PM,39.2,30.2,70,30.30,10.0,ENE,4.6,-,N/A,,Clear,60,2013-03-08 05:55:00